This is the latest recevied weather packets stored in our database for station/object HG5CJW-10. If no packets are shown the sender has not sent any weather packets the latest 10 day(s).
| Time | Temp. | Humidity | Pressure | Rain* | Wind** | Luminosity | Snow |
|---|---|---|---|---|---|---|---|
| 1777421032 | 12.22° C | 42% | 1039.3 hPa | - | - | - | - |
| 1777420132 | 12.22° C | 41% | 1039.3 hPa | - | - | - | - |
| 1777419232 | 12.78° C | 41% | 1039.4 hPa | - | - | - | - |
| 1777418332 | 12.78° C | 41% | 1039.2 hPa | - | - | - | - |
| 1777417432 | 12.78° C | 42% | 1039.3 hPa | - | - | - | - |
| 1777416532 | 13.33° C | 41% | 1039.3 hPa | - | - | - | - |
| 1777415632 | 13.33° C | 42% | 1039.3 hPa | - | - | - | - |
| 1777414732 | 13.89° C | 42% | 1039.5 hPa | - | - | - | - |
| 1777410226 | 15° C | 42% | 1039 hPa | - | - | - | - |
| 1777408426 | 15.56° C | 43% | 1038.7 hPa | - | - | - | - |
| 1777407526 | 15.56° C | 43% | 1038.6 hPa | - | - | - | - |
| 1777406626 | 15.56° C | 43% | 1037.6 hPa | - | - | - | - |
| 1777405726 | 16.11° C | 43% | 1038.3 hPa | - | - | - | - |
| 1777403025 | 17.22° C | 43% | 1038 hPa | - | - | - | - |
| 1777402125 | 17.78° C | 42% | 1037.9 hPa | - | - | - | - |
| 1777401225 | 17.78° C | 42% | 1037.8 hPa | - | - | - | - |
| 1777400325 | 18.33° C | 41% | 1037.6 hPa | - | - | - | - |
| 1777399425 | 18.33° C | 41% | 1037.5 hPa | - | - | - | - |
| 1777397625 | 18.33° C | 41% | 1036.8 hPa | - | - | - | - |
| 1777396720 | 18.89° C | 41% | 1037 hPa | - | - | - | - |
| 1777394920 | 19.44° C | 41% | 1036.9 hPa | - | - | - | - |
| 1777394020 | 19.44° C | 41% | 1036.8 hPa | - | - | - | - |
| 1777393119 | 19.44° C | 41% | 1036.7 hPa | - | - | - | - |
| 1777392219 | 19.44° C | 41% | 1036.7 hPa | - | - | - | - |
| 1777391319 | 19.44° C | 40% | 1036.8 hPa | - | - | - | - |
* Rain since midnight (hover to see other rain measurements)
** Current wind speed in m/s (hover to see current wind gust speed)